When you browse on this site, cookies collect data to enhance your experience and personalize the content and advertising you see.
Visit our Privacy Policy to learn more. By continuing to use the site, you agree to this use of cookies and data.
  • In Deutschland
  • Länderverzeichnis
  • Für 7 Tage
  • Wassertemperatur
  • Wetterkarte
  • Widgets
  • user-avatar
    Anmelden

    Stündliche Wetter Igls

    Heute, 1 Juni, Montag

    Zeit Temperatur Niederschläge Wind Luftdruck Luftfeuchtigkeit
    00:00 +7°C° 0 mm 1 m/S 686 mmHg 95%
    01:00 +7°C° 0 mm 1 m/S 686 mmHg 95%
    02:00 +7°C° 0 mm 1 m/S 685 mmHg 94%
    03:00 +6°C° 0 mm 1 m/S 685 mmHg 93%
    04:00 +6°C° 0 mm 1 m/S 685 mmHg 93%
    05:00 +9°C° 0 mm 1 m/S 685 mmHg 85%
    06:00 +11°C° 0 mm 1 m/S 686 mmHg 76%
    07:00 +13°C° 0 mm 0 m/S 687 mmHg 67%
    08:00 +16°C° 0 mm 1 m/S 687 mmHg 61%
    09:00 +18°C° 0 mm 1 m/S 687 mmHg 55%
    10:00 +19°C° 0 mm 2 m/S 687 mmHg 50%
    11:00 +20°C° 0 mm 2 m/S 687 mmHg 47%
    12:00 +21°C° 0 mm 2 m/S 687 mmHg 44%
    13:00 +22°C° 0 mm 3 m/S 687 mmHg 41%
    14:00 +22°C° 0 mm 3 m/S 687 mmHg 43%
    15:00 +21°C° 0 mm 3 m/S 687 mmHg 44%
    16:00 +21°C° 0 mm 3 m/S 686 mmHg 46%
    17:00 +20°C° 0 mm 2 m/S 686 mmHg 55%
    18:00 +18°C° 0 mm 2 m/S 686 mmHg 65%
    19:00 +17°C° 0 mm 2 m/S 686 mmHg 75%
    20:00 +15°C° 0 mm 1 m/S 686 mmHg 82%
    21:00 +13°C° 0 mm 1 m/S 685 mmHg 88%
    22:00 +9°C° 0 mm 0 m/S 685 mmHg 95%
    23:00 +10°C° 0 mm 1 m/S 685 mmHg 95%

    Morgen, 2 Juni, Dienstag

    Zeit Temperatur Niederschläge Wind Luftdruck Luftfeuchtigkeit
    00:00 +10°C° 0 mm 1 m/S 685 mmHg 96%
    01:00 +10°C° 0 mm 1 m/S 685 mmHg 96%
    02:00 +9°C° 0 mm 1 m/S 685 mmHg 95%
    03:00 +9°C° 0 mm 1 m/S 684 mmHg 95%
    04:00 +9°C° 0 mm 1 m/S 684 mmHg 94%
    05:00 +11°C° 0 mm 1 m/S 685 mmHg 88%
    06:00 +13°C° 0 mm 1 m/S 685 mmHg 81%
    07:00 +15°C° 0 mm 1 m/S 685 mmHg 75%
    08:00 +18°C° 0 mm 1 m/S 686 mmHg 65%
    09:00 +19°C° 0 mm 2 m/S 686 mmHg 56%
    10:00 +20°C° 0 mm 2 m/S 686 mmHg 47%
    11:00 +21°C° 0.1 mm 2 m/S 686 mmHg 45%
    12:00 +21°C° 0.1 mm 3 m/S 685 mmHg 44%
    13:00 +22°C° 0.1 mm 3 m/S 685 mmHg 42%
    14:00 +21°C° 0.3 mm 3 m/S 684 mmHg 45%
    15:00 +21°C° 0.3 mm 3 m/S 684 mmHg 48%
    16:00 +21°C° 0.3 mm 3 m/S 684 mmHg 51%
    17:00 +19°C° 0.2 mm 2 m/S 683 mmHg 59%
    18:00 +18°C° 0.2 mm 2 m/S 683 mmHg 68%
    19:00 +16°C° 0.2 mm 2 m/S 682 mmHg 76%
    20:00 +14°C° 0 mm 1 m/S 682 mmHg 81%
    21:00 +12°C° 0 mm 1 m/S 682 mmHg 87%
    22:00 +10°C° 0 mm 1 m/S 682 mmHg 93%
    23:00 +10°C° 0 mm 1 m/S 682 mmHg 92%

    übermorgen, 3 Juni, Mittwoch

    Zeit Temperatur Niederschläge Wind Luftdruck Luftfeuchtigkeit
    00:00 +10°C° 0 mm 1 m/S 681 mmHg 92%
    01:00 +9°C° 0 mm 1 m/S 681 mmHg 91%
    02:00 +9°C° 0 mm 1 m/S 681 mmHg 90%
    03:00 +9°C° 0 mm 1 m/S 680 mmHg 89%
    04:00 +9°C° 0 mm 1 m/S 680 mmHg 87%
    05:00 +11°C° 0 mm 1 m/S 680 mmHg 80%
    06:00 +12°C° 0 mm 0 m/S 680 mmHg 72%
    07:00 +14°C° 0 mm 0 m/S 680 mmHg 65%
    08:00 +16°C° 0 mm 0 m/S 680 mmHg 55%
    09:00 +19°C° 0 mm 0 m/S 681 mmHg 45%
    10:00 +23°C° 0 mm 1 m/S 681 mmHg 35%
    11:00 +24°C° 0 mm 1 m/S 680 mmHg 33%
    12:00 +24°C° 0 mm 1 m/S 680 mmHg 32%
    13:00 +25°C° 0 mm 1 m/S 680 mmHg 30%
    14:00 +24°C° 0.1 mm 2 m/S 679 mmHg 34%
    15:00 +24°C° 0.1 mm 2 m/S 678 mmHg 38%
    16:00 +23°C° 0.1 mm 2 m/S 678 mmHg 42%
    17:00 +21°C° 0.2 mm 1 m/S 677 mmHg 52%
    18:00 +20°C° 0.2 mm 1 m/S 677 mmHg 62%
    19:00 +19°C° 0.2 mm 1 m/S 677 mmHg 72%
    20:00 +16°C° 0.1 mm 1 m/S 677 mmHg 76%
    21:00 +15°C° 0.1 mm 1 m/S 676 mmHg 80%
    22:00 +14°C° 0.1 mm 2 m/S 676 mmHg 84%
    23:00 +13°C° 0 mm 2 m/S 676 mmHg 86%

    4 Juni, Donnerstag

    Zeit Temperatur Niederschläge Wind Luftdruck Luftfeuchtigkeit
    00:00 +13°C° 0 mm 2 m/S 676 mmHg 88%
    01:00 +12°C° 0 mm 2 m/S 675 mmHg 90%
    02:00 +12°C° 0 mm 2 m/S 675 mmHg 90%
    03:00 +12°C° 0 mm 2 m/S 675 mmHg 91%
    04:00 +12°C° 0 mm 1 m/S 674 mmHg 91%
    05:00 +13°C° 0.5 mm 1 m/S 674 mmHg 92%
    06:00 +13°C° 0.5 mm 1 m/S 674 mmHg 92%
    07:00 +14°C° 0.5 mm 1 m/S 674 mmHg 92%
    08:00 +15°C° 0.4 mm 1 m/S 674 mmHg 89%
    09:00 +15°C° 0.4 mm 1 m/S 674 mmHg 86%
    10:00 +16°C° 0.4 mm 1 m/S 674 mmHg 83%
    11:00 +18°C° 0.2 mm 1 m/S 674 mmHg 79%
    12:00 +19°C° 0.2 mm 1 m/S 674 mmHg 75%
    13:00 +18°C° 0.2 mm 2 m/S 673 mmHg 71%
    14:00 +17°C° 0.8 mm 2 m/S 673 mmHg 77%
    15:00 +16°C° 0.8 mm 2 m/S 672 mmHg 83%
    16:00 +15°C° 0.8 mm 2 m/S 672 mmHg 89%
    17:00 +14°C° 1 mm 2 m/S 672 mmHg 90%
    18:00 +14°C° 1 mm 2 m/S 672 mmHg 92%
    19:00 +13°C° 1 mm 1 m/S 672 mmHg 93%
    20:00 +13°C° 0.5 mm 1 m/S 672 mmHg 95%
    21:00 +12°C° 0.5 mm 1 m/S 672 mmHg 96%
    22:00 +12°C° 0.5 mm 1 m/S 672 mmHg 98%
    23:00 +12°C° 1.9 mm 1 m/S 672 mmHg 98%

    5 Juni, Freitag

    Zeit Temperatur Niederschläge Wind Luftdruck Luftfeuchtigkeit
    00:00 +12°C° 1.9 mm 1 m/S 671 mmHg 98%
    01:00 +11°C° 1.9 mm 1 m/S 671 mmHg 98%
    02:00 +11°C° 3.2 mm 1 m/S 670 mmHg 98%
    03:00 +10°C° 3.2 mm 1 m/S 670 mmHg 98%
    04:00 +10°C° 3.2 mm 1 m/S 670 mmHg 98%
    05:00 +10°C° 2.4 mm 1 m/S 671 mmHg 98%
    06:00 +9°C° 2.4 mm 2 m/S 671 mmHg 98%
    07:00 +9°C° 2.4 mm 2 m/S 672 mmHg 98%
    08:00 +8°C° 1.9 mm 2 m/S 672 mmHg 98%
    09:00 +8°C° 1.9 mm 2 m/S 673 mmHg 98%
    10:00 +7°C° 1.9 mm 2 m/S 673 mmHg 98%
    11:00 +7°C° 0.8 mm 2 m/S 674 mmHg 97%
    12:00 +7°C° 0.8 mm 2 m/S 674 mmHg 96%
    13:00 +8°C° 0.8 mm 2 m/S 674 mmHg 95%
    14:00 +8°C° 0.2 mm 2 m/S 675 mmHg 90%
    15:00 +9°C° 0.2 mm 2 m/S 675 mmHg 85%
    16:00 +10°C° 0.2 mm 2 m/S 676 mmHg 80%
    17:00 +9°C° 0.1 mm 2 m/S 676 mmHg 80%
    18:00 +9°C° 0.1 mm 2 m/S 676 mmHg 79%
    19:00 +10°C° 0.1 mm 1 m/S 677 mmHg 79%
    20:00 +8°C° 0 mm 1 m/S 677 mmHg 81%
    21:00 +7°C° 0 mm 1 m/S 678 mmHg 84%
    22:00 +4°C° 0 mm 2 m/S 678 mmHg 86%
    23:00 +4°C° 0 mm 2 m/S 679 mmHg 84%

    6 Juni, Samstag

    Zeit Temperatur Niederschläge Wind Luftdruck Luftfeuchtigkeit
    00:00 +4°C° 0 mm 2 m/S 679 mmHg 83%
    01:00 +3°C° 0 mm 2 m/S 679 mmHg 81%
    02:00 +4°C° 0 mm 2 m/S 679 mmHg 76%
    03:00 +4°C° 0 mm 2 m/S 679 mmHg 72%
    04:00 +4°C° 0 mm 2 m/S 680 mmHg 68%
    05:00 +7°C° 0 mm 1 m/S 680 mmHg 66%
    06:00 +10°C° 0 mm 1 m/S 680 mmHg 64%
    07:00 +12°C° 0 mm 1 m/S 681 mmHg 63%
    08:00 +14°C° 0 mm 1 m/S 681 mmHg 60%
    09:00 +15°C° 0 mm 0 m/S 682 mmHg 57%
    10:00 +18°C° 0 mm 0 m/S 682 mmHg 54%
    11:00 +18°C° 0 mm 0 m/S 682 mmHg 54%
    12:00 +20°C° 0 mm 1 m/S 682 mmHg 54%
    13:00 +20°C° 0 mm 1 m/S 681 mmHg 54%
    14:00 +20°C° 0 mm 1 m/S 681 mmHg 56%
    15:00 +20°C° 0 mm 1 m/S 681 mmHg 57%
    16:00 +20°C° 0 mm 1 m/S 681 mmHg 59%
    17:00 +19°C° 0.2 mm 1 m/S 681 mmHg 67%
    18:00 +18°C° 0.2 mm 1 m/S 681 mmHg 76%
    19:00 +15°C° 0.2 mm 1 m/S 681 mmHg 84%
    20:00 +14°C° 0.1 mm 1 m/S 681 mmHg 87%
    21:00 +13°C° 0.1 mm 1 m/S 681 mmHg 90%
    22:00 +11°C° 0.1 mm 1 m/S 681 mmHg 93%
    23:00 +11°C° 0 mm 1 m/S 681 mmHg 93%
    Mehr zeigen